Home   Weather   Besançon   Past weeks

Flag for France Past Weather in Besançon, Franche-Comté, France — Yesterday and Last 2 Weeks

Now
28 °F

Passing clouds.


Feels Like: 15 °F
Forecast: 15 / 29 °F
Wind: 22 mph from Northeast

Location: Dole Tavaux

Current Time: Jan 18, 2017 at 2:58:32 am

Latest Report: Jan 18, 2017 at 2:30 am


Visibility: N/A

Pressure: 30.33 "Hg

Humidity: 64%

Dew Point: 18 °F

Location of BesançonLocation

Past Weather in Besançon — Graph

°F

Besançon Temperature Yesterday

Maximum temperature yesterday: 32 °F (at 2:30 pm)
Minimum temperature yesterday: 23 °F (at 7:00 am)
Average temperature yesterday: 27 °F

High & Low Weather Summary for the Past Weeks

 TemperatureHumidityPressure
High46 °F (Jan 12, 1:00 pm)100% (Jan 3, 3:00 am)30.63 "Hg (Jan 3, 3:00 am)
Low16 °F (Jan 7, 8:00 am)60% (Jan 6, 2:30 pm)29.56 "Hg (Jan 12, 9:00 pm)
Average32 °F87%30.23 "Hg
* Reported Jan 3 1:00 am — Jan 18 1:30 am, Besançon, Weather by CustomWeather, © 2017

Note: Actual official high and low records may vary slightly from our data, if they occured in-between our weather recording intervals... More about our weather records

Advertising

Besançon Weather History for the Previous 24 Hours

Scroll right to see more
 ConditionsComfort  
Time TempWeatherWind HumidityBarometerVisibility
1:30 am
Wed, Jan 18
28 °FOvercast.20 mph64%30.33 "HgN/A
1:00 am28 °FOvercast.17 mph69%30.33 "HgN/A
12:30 am28 °FOvercast.20 mph69%30.33 "HgN/A
12:00 am28 °FOvercast.20 mph64%30.33 "HgN/A
11:30 pm
Tue, Jan 17
28 °FOvercast.16 mph64%30.33 "HgN/A
11:00 pm28 °FOvercast.17 mph64%30.33 "HgN/A
10:30 pm28 °FOvercast.18 mph69%30.33 "HgN/A
10:00 pm28 °FOvercast.21 mph64%30.33 "HgN/A
9:30 pm28 °FOvercast.21 mph69%30.33 "HgN/A
9:00 pm28 °FOvercast.20 mph69%30.33 "HgN/A
8:30 pm28 °FMostly cloudy.21 mph69%30.33 "HgN/A
8:00 pm28 °FMostly cloudy.18 mph69%30.33 "HgN/A
7:30 pm28 °FOvercast.18 mph69%30.33 "HgN/A
7:00 pm28 °FOvercast.20 mph64%30.33 "HgN/A
6:30 pm28 °FPassing clouds.21 mph69%30.33 "HgN/A
6:00 pm30 °FMostly cloudy.20 mph64%30.30 "HgN/A
5:30 pm30 °FOvercast.18 mph64%30.33 "HgN/A
5:00 pm30 °FOvercast.18 mph69%30.30 "HgN/A
4:30 pm30 °FOvercast.18 mph69%30.30 "HgN/A
4:00 pm30 °FOvercast.18 mph64%30.30 "HgN/A
3:30 pm32 °FMostly cloudy.21 mph60%30.30 "HgN/A
3:00 pm32 °FPartly sunny.23 mph64%30.30 "HgN/A
2:30 pm32 °FPartly sunny.21 mph64%30.30 "HgN/A
2:00 pm30 °FPartly sunny.22 mph64%30.30 "HgN/A
1:30 pm30 °FPassing clouds.24 mph64%30.30 "HgN/A
1:00 pm30 °FPassing clouds.23 mph64%30.30 "HgN/A
12:30 pm30 °FPassing clouds.24 mph69%30.33 "HgN/A
12:00 pm28 °FSunny.23 mph74%30.33 "Hg10 mi
11:30 am28 °FPassing clouds.23 mph74%30.33 "HgN/A
11:00 am27 °FPassing clouds.21 mph80%30.33 "HgN/A
10:30 am27 °FSunny.20 mph74%30.33 "Hg10 mi
10:00 am25 °FPassing clouds.20 mph80%30.33 "HgN/A
9:30 am25 °FSunny.18 mph80%30.33 "Hg10 mi
9:00 am25 °FClear.18 mph80%30.33 "Hg10 mi
8:30 am23 °FClear.15 mph86%30.30 "Hg10 mi
8:00 am23 °FClear.15 mph86%30.30 "Hg10 mi
7:30 am23 °FClear.15 mph86%30.30 "Hg10 mi
7:00 am23 °FClear.12 mph86%30.30 "Hg10 mi
6:30 am25 °FClear.16 mph80%30.30 "Hg10 mi
6:00 am25 °FClear.15 mph80%30.30 "Hg10 mi
5:30 am25 °FClear.14 mph80%30.27 "Hg10 mi
5:00 am25 °FClear.14 mph80%30.30 "Hg10 mi
4:30 am25 °FClear.13 mph80%30.27 "Hg10 mi
4:00 am25 °FClear.13 mph80%30.27 "Hg10 mi
3:30 am25 °FClear.13 mph80%30.27 "Hg10 mi
3:00 am25 °FClear.12 mph80%30.27 "Hg10 mi
2:30 am25 °FClear.9 mph80%30.27 "Hg10 mi
2:00 am25 °FClear.12 mph86%30.27 "Hg10 mi
Weather by CustomWeather, © 2017

See weather overviewHow to use our weather pages